Location: Unspecified
(0.0000°N, 0.0000°E)
Time: 19:26:51
(UTC+00:00)

Hubble Space Telescope - Pass Details

Date: 09 November 2025
Orbit: 482 x 485 km, 28.5° (Epoch: 06 November)

Event Time Altitude Azimuth Distance (km) Brightness Sun altitude
Rises 18:25:28 0° 288° (WNW) 2,522 5.2 -9.9°
Reaches altitude 10° 18:27:45 10° 280° (W) 1,644 4.3 -10.5°
Maximum altitude 18:31:18 38° 210° (SSW) 739 1.9 -11.3°
Drops below altitude 10° 18:34:51 10° 140° (SE) 1,648 3.0 -12.2°
Enters shadow 18:36:42 - 133° (SE) 2,351 3.8 -12.6°
